Springfield, MO

11:05 AM CST on November 24, 2017 (GMT -0600)
Springfield-Branson Regional

Weather History for KSGF - April, 2012

Change the Weather History Date:

Wednesday, April 18, 2012

  Actual Average Record
Temperature  
Mean Temperature 60 °F 56 °F  
Max Temperature 72 °F 68 °F 92 °F (2006)
Min Temperature 47 °F 45 °F 26 °F (1953)
Degree Days  
Heating Degree Days 5 9  
Month to date heating degree days 124 211  
Since 1 July heating degree days 3570 4385  
Cooling Degree Days 0 1  
Month to date cooling degree days 22 11  
Year to date cooling degree days 56 14  
Growing Degree Days 9 (Base 50)    
Moisture  
Dew Point 44 °F    
Average Humidity 61    
Maximum Humidity 86    
Minimum Humidity 35    
Precipitation  
Precipitation 0.00 in 0.14 in 2.13 in (1941)
Month to date precipitation 3.50 2.37  
Year to date precipitation 9.55 10.98  
Snow  
Snow 0.00 in - - ()
Month to date snowfall 0.0  
Since 1 July snowfall 2.8  
Snow Depth 0.00 in    
Sea Level Pressure  
Sea Level Pressure 30.11 in    
Wind  
Wind Speed 11 mph (SSE)    
Max Wind Speed 17 mph    
Max Gust Speed 22 mph    
Visibility 10 miles    
Events      
T = Trace of Precipitation, MM = Missing Value Source: NWS Daily Summary

Daily Weather History Graph

Daily Weather History Graph

Search for Another Location

Airport or City:

Trip Planner

Search our weather history database for the weather conditions in past years. The results will help you decide how hot, cold, wet, or windy it might be!

Date:

Astronomy

Apr. 18, 2012 Rise Set
Actual Time 6:34 AM CDT 7:51 PM CDT
Civil Twilight 6:07 AM CDT 8:18 PM CDT
Nautical Twilight 5:34 AM CDT 8:51 PM CDT
Astronomical Twilight 5:01 AM CDT 9:25 PM CDT
Moon 4:57 AM CDT (4/18) 5:45 PM CDT (4/18)
Length of Visible Light 14h 11m
Length of Day
13h 17m
Waning Crescent, 6% of the Moon is Illuminated
Apr 18
Waning Crescent
Apr 21
New
Apr 29
First Quarter
May 5
Full
May 12
Last Quarter

Hourly Weather History & Observations

Time (CDT) Temp. Dew Point Humidity Pressure Visibility Wind Dir Wind Speed Gust Speed Precip Events Conditions
12:52 AM 52.0 °F 45.0 °F 77% 30.21 in 10.0 mi SSE 9.2 mph - N/A   Clear
1:52 AM 50.0 °F 44.1 °F 80% 30.19 in 10.0 mi SSE 9.2 mph - N/A   Clear
2:52 AM 51.1 °F 44.1 °F 77% 30.19 in 10.0 mi SSE 9.2 mph - N/A   Clear
3:52 AM 48.9 °F 44.1 °F 83% 30.17 in 10.0 mi SSE 9.2 mph - N/A   Clear
4:52 AM 48.0 °F 43.0 °F 83% 30.17 in 10.0 mi SSE 10.4 mph - N/A   Clear
5:52 AM 46.9 °F 43.0 °F 86% 30.16 in 10.0 mi SSE 10.4 mph - N/A   Clear
6:52 AM 46.9 °F 43.0 °F 86% 30.18 in 10.0 mi SSE 9.2 mph - N/A   Clear
7:52 AM 52.0 °F 45.0 °F 77% 30.19 in 10.0 mi SSE 8.1 mph - N/A   Clear
8:52 AM 55.9 °F 45.0 °F 67% 30.18 in 10.0 mi SSE 16.1 mph - N/A   Clear
9:52 AM 60.1 °F 43.0 °F 53% 30.19 in 10.0 mi SSE 13.8 mph - N/A   Clear
10:52 AM 63.0 °F 42.1 °F 46% 30.18 in 10.0 mi South 15.0 mph - N/A   Mostly Cloudy
11:52 AM 66.0 °F 44.1 °F 45% 30.16 in 10.0 mi SSE 10.4 mph - N/A   Clear
12:52 PM 68.0 °F 39.9 °F 36% 30.13 in 10.0 mi South 13.8 mph - N/A   Clear
1:52 PM 70.0 °F 46.9 °F 44% 30.10 in 10.0 mi South 11.5 mph 19.6 mph N/A   Clear
2:52 PM 71.1 °F 46.9 °F 42% 30.07 in 10.0 mi SSW 13.8 mph 17.3 mph N/A   Clear
3:52 PM 71.1 °F 46.0 °F 41% 30.04 in 10.0 mi South 11.5 mph 19.6 mph N/A   Clear
4:52 PM 71.1 °F 46.0 °F 41% 30.02 in 10.0 mi SSW 10.4 mph - N/A   Clear
5:52 PM 71.1 °F 46.9 °F 42% 30.01 in 10.0 mi South 11.5 mph - N/A   Clear
6:52 PM 69.1 °F 46.0 °F 44% 30.00 in 10.0 mi South 9.2 mph - N/A   Clear
7:52 PM 64.0 °F 45.0 °F 50% 30.00 in 10.0 mi SSE 9.2 mph - N/A   Clear
8:52 PM 62.1 °F 44.1 °F 52% 30.00 in 10.0 mi SSE 10.4 mph - N/A   Clear
9:52 PM 62.1 °F 42.1 °F 48% 29.99 in 10.0 mi SSE 15.0 mph 21.9 mph N/A   Clear
10:52 PM 60.1 °F 42.1 °F 51% 29.99 in 10.0 mi South 9.2 mph - N/A   Clear
11:52 PM 57.0 °F 42.1 °F 57% 29.98 in 10.0 mi South 9.2 mph - N/A   Clear